Location: Chillicothe
(39.7950°N, 93.5520°W)
Time: 08:25:41
(UTC-06:00)

Explorer 11/Cluster Stage 4 - Pass Details

Date: 27 October 2019
Orbit: 467 x 1259 km, 28.8° (Epoch: 17 November)

Event Time Altitude Azimuth Distance (km) Brightness Sun altitude
Rises 07:25:37 0° 231° (SW) 3,093 9.3 -3.0°
Reaches altitude 10° 07:29:04 10° 209° (SSW) 2,008 8.5 -2.3°
Maximum altitude 07:31:46 15° 173° (S) 1,566 8.5 -1.8°
Drops below altitude 10° 07:34:15 10° 136° (SE) 1,794 9.6 -1.4°
Sets 07:37:04 0° 112° (ESE) 2,590 12.2 -0.9°
